This is the latest recevied weather packets stored in our database for station/object IZ5RIE-13. If no packets are shown the sender has not sent any weather packets the latest 10 day(s).
| Time | Temp. | Humidity | Pressure | Rain* | Wind** | Luminosity | Snow |
|---|---|---|---|---|---|---|---|
| 1788595546 | 25.56° C | 100% | 1020.4 hPa | - | - | - | - |
| 1788594646 | 25° C | 100% | 1019 hPa | - | - | - | - |
| 1788594615 | 25.56° C | 100% | 1020 hPa | - | - | - | - |
| 1788593715 | 25.56° C | 100% | 1019.9 hPa | - | - | - | - |
| 1788592820 | 26.11° C | 100% | 1020.1 hPa | - | - | - | - |
| 1788591914 | 25.56° C | 100% | 1019.8 hPa | - | - | - | - |
| 1788591014 | 25.56° C | 100% | 1019.9 hPa | - | - | - | - |
| 1788590983 | 25.56° C | 100% | 1019.9 hPa | - | - | - | - |
| 1788590082 | 25.56° C | 100% | 1019.7 hPa | - | - | - | - |
| 1788590052 | 25.56° C | 100% | 1019.6 hPa | - | - | - | - |
| 1788589152 | 26.11° C | 100% | 1019.5 hPa | - | - | - | - |
| 1788589118 | 26.11° C | 100% | 1019.5 hPa | - | - | - | - |
| 1788589086 | 26.11° C | 100% | 1019.5 hPa | - | - | - | - |
| 1788588185 | 25.56° C | 100% | 1019.7 hPa | - | - | - | - |
| 1788588157 | 25.56° C | 100% | 1019.7 hPa | - | - | - | - |
| 1788588124 | 25° C | 100% | 1019.7 hPa | - | - | - | - |
| 1788588093 | 25° C | 100% | 1019.7 hPa | - | - | - | - |
| 1788587193 | 23.89° C | 100% | 1019.6 hPa | - | - | - | - |
| 1788586293 | 23.33° C | 100% | 1019.7 hPa | - | - | - | - |
| 1788585393 | 23.89° C | 100% | 1019.8 hPa | - | - | - | - |
| 1788584493 | 22.78° C | 100% | 1019.8 hPa | - | - | - | - |
| 1788583592 | 22.78° C | 100% | 1019.4 hPa | - | - | - | - |
| 1788582692 | 22.78° C | 100% | 1019.5 hPa | - | - | - | - |
| 1788581823 | 22.78° C | 100% | 1019.6 hPa | - | - | - | - |
| 1788580892 | 23.33° C | 100% | 1019.5 hPa | - | - | - | - |
* Rain since midnight (hover to see other rain measurements)
** Current wind speed in m/s (hover to see current wind gust speed)